Regional Weather Roundup
Issued by NWS Sioux Falls, SD

Home | Current Version | Previous Version | Text Only | Print | Product List | Glossary Off
Versions: 1 2 3 4 5 6 7 8 9 10 11 12 13 14 15 16 17 18 19 20 21 22 23 24 25 26 27 28 29 30 31 32 33 34 35 36 37 38 39 40 41 42 43 44 45 46 47 48 49 50

000
ASUS43 KFSD 281302
RWRFSD

WEATHER ROUNDUP FOR SE SOUTH DAKOTA/SW MINNESOTA/NW IOWA
NATIONAL WEATHER SERVICE SIOUX FALLS SD
800 AM CDT FRI JUL 28 2017

NOTE: "FAIR" INDICATES FEW OR NO CLOUDS BELOW 12,000 FEET WITH NO
SIGNIFICANT WEATHER AND OR OBSTRUCTIONS TO VISIBILITY.


SDZ038>040-050-052>070-281400-
SOUTHEAST SOUTH DAKOTA

CITY           SKY/WX    TMP DP  RH WIND       PRES   REMARKS
BROOKINGS      CLOUDY    68  63  84 CALM      30.11R
CHAMBERLAIN    CLOUDY    69  65  86 S8        30.07S
HURON          CLOUDY    67  63  87 S6        30.08S
MADISON        FAIR      63  63 100 E3        30.11S
MITCHELL       MOSUNNY   68  65  90 SE5       30.08S
SIOUX FALLS    CLOUDY    66  63  90 CALM      30.10S
WINNER         CLOUDY    68  64  87 SE7       30.08R
YANKTON        PTSUNNY   66  63  90 CALM      30.09
$$

MNZ071-072-080-081-089-090-097-098-281400-
SOUTHWEST MINNESOTA

CITY           SKY/WX    TMP DP  RH WIND       PRES   REMARKS
FAIRMONT       CLOUDY    69  64  84 NE5       30.10R
JACKSON        CLOUDY    64  63  94 CALM      30.10S
MARSHALL       CLOUDY    65  63  93 NW3       30.11R
MONTEVIDEO     PTSUNNY   66  63  88 CALM      30.10R
PIPESTONE      CLOUDY    68  61  77 CALM      30.11S
REDWOOD FALLS  CLOUDY    67  61  81 E6        30.09R
TRACY          MOSUNNY   66  65  94 NW3       30.11R
WINDOM         CLOUDY    66  63  88 CALM      30.10S
WORTHINGTON    MOSUNNY   63  60  90 CALM      30.12R
$$

IAZ001>003-012>014-020>022-031-032-NEZ013-014-SDZ071-281400-
NORTHWEST IOWA

CITY           SKY/WX    TMP DP  RH WIND       PRES   REMARKS
CHEROKEE       CLOUDY    64  64  97 N5        30.08S
DENISON        MOSUNNY   66  64  94 NE5       30.09R
ESTHERVILLE    MOSUNNY   63  63 100 NW3       30.09R
ORANGE CITY    CLOUDY    68  63  83 E6        30.09R
SHELDON        CLOUDY    66  63  88 NE3       30.08S
SIOUX CITY     MOSUNNY   70  64  81 E3        30.08R
SPENCER        SUNNY     66  62  87 CALM      30.09S
STORM LAKE     CLOUDY    68  63  83 NE9       30.08S
$$

ABBREVIATIONS USED IN REMARKS
   TC - TEMPERATURE IN CELSIUS
  WCI - WIND CHILL INDEX
   HX - HEAT INDEX
  VSB - VISIBILITY





USA.gov is the U.S. government's official web portal to all federal, state and local government web resources and services.